This demonstration page uses our WeatherBlox Daily Observations layout. Learn more.

Left ArrowRight Arrow

Hourly Observations for December 10, 2022

Temp ( °F °C ) Dew Point ( °F °C ) Humidity (%) Winds ( mph kmh ) Pressure ( in mb ) Visibility ( mi km ) Precip ( " mm )
12:53 am 00:53 Clear 52 11.1 41 5 66 66 SE 13 20 30.05 1018 10 16 0.00 0.00
1:53 am 01:53 Clear 51 10.6 41 5 68 68 ESE 10 17 30.05 1018 10 16 0.00 0.00
2:53 am 02:53 Mostly Cloudy 52 11.1 39 3.9 61 61 SE 16 26 30.03 1017 10 16 0.00 0.00
3:53 am 03:53 Mostly Cloudy 52 11.1 38 3.3 59 59 SE 12 19 30.01 1016 10 16 0.00 0.00
4:53 am 04:53 Partly Cloudy 52 11.1 41 5 66 66 SE 15 24 30.00 1016 10 16 0.00 0.00
5:53 am 05:53 Mostly Cloudy 51 10.6 41 5 68 68 ESE 12 19 29.99 1016 10 16 0.00 0.00
6:53 am 06:53 Cloudy with Light Rain 49 9.4 44 6.7 83 83 ESE 15 24 30.00 1016 7 11 0.02 0.51
7:53 am 07:53 Cloudy 49 9.4 43 6.1 80 80 ESE 15 24 30.00 1016 10 16 0.01 0.25
8:53 am 08:53 Cloudy 50 10 42 5.6 74 74 ESE 17 28 30.00 1016 10 16 0.00 0.00
9:53 am 09:53 Cloudy 53 11.7 43 6.1 68 68 ESE 21 33 29.98 1015 10 16 0.00 0.00
10:53 am 10:53 Mostly Cloudy 55 12.8 45 7.2 69 69 ESE 24 39 29.95 1014 10 16 0.00 0.00
11:53 am 11:53 Cloudy with Light Rain 56 13.3 45 7.2 66 66 SE 23 37 29.90 1013 10 16 0.01 0.13
12:53 pm 12:53 Cloudy 56 13.3 47 8.3 72 72 ESE 22 35 29.86 1011 10 16 0.01 0.13
1:53 pm 13:53 Partly Cloudy 60 15.6 48 8.9 64 64 SE 30 48 29.82 1010 10 16 0.01 0.13
2:53 pm 14:53 Partly Cloudy 62 16.7 48 8.9 60 60 SE 29 46 29.79 1009 10 16 0.00 0.00
3:53 pm 15:53 Sunny 61 16.1 47 8.3 60 60 SE 25 41 29.77 1008 10 16 0.00 0.00
4:53 pm 16:53 Cloudy 60 15.6 48 8.9 64 64 SE 23 37 29.75 1008 10 16 0.00 0.00
5:53 pm 17:53 Cloudy with Light Rain 59 15 48 8.9 67 67 SE 22 35 29.74 1007 10 16 0.01 0.13
6:53 pm 18:53 Cloudy with Rain 56 13.3 51 10.6 84 84 SSE 20 31 29.74 1007 4 6 0.10 2.54
7:53 pm 19:53 Cloudy with Rain 56 13.3 51 10.6 84 84 SSE 21 33 29.73 1007 5 8 0.17 4.32
8:26 pm 20:26 Cloudy with Heavy Rain 55 12.8 52 11.1 89 89 S 17 28 29.76 1008 2 3 0.15 3.81
8:39 pm 20:39 Cloudy with Light Rain 55 12.8 52 11.1 89 89 SSE 14 22 29.75 1007 5 8 0.18 4.57
8:53 pm 20:53 Cloudy 55 12.8 52 11.1 89 89 SSE 18 30 29.73 1007 10 16 0.18 4.57
9:53 pm 21:53 Cloudy with Light Rain 56 13.3 52 11.1 87 87 SE 16 26 29.74 1007 10 16 0.01 0.13
10:53 pm 22:53 Clear 55 12.8 52 11.1 89 89 SE 13 20 29.73 1007 10 16 0.01 0.13
11:53 pm 23:53 Mostly Cloudy 54 12.2 52 11.1 93 93 SSE 13 20 29.72 1007 10 16 0.00 0.00

Powered by AerisWeather